Flag for U.S.A. Weather past 2 weeks in Columbus, Georgia, U.S.A.

Now
66 °F

Clear.


Feels Like: 66 °F
Forecast: 59 / 78 °F
Wind: 5 mph from Northeast

Location: Columbus Metropolitan Airport

Current Time: Sep 23, 2014 at 1:04:29 AM

Latest Report: Sep 22, 2014 at 11:51 PM


Visibility: 10 mi

Pressure: 30.07 "Hg

Humidity: 61%

Dew point: 52 °F

Location of ColumbusLocation

Historic Weather in Columbus — Graph

°F

Columbus temperature yesterday

Maximum temperature yesterday: 75 °F (at 5:51 PM)
Minimum temperature yesterday: 64 °F (at 11:51 AM)
Average temperature yesterday: 70 °F

Past Weeks' High & Low Weather Summary

 TemperatureHumidityPressure
High93 °F (Sep 12, 3:51 PM)97% (Sep 8, 12:51 AM)30.18 "Hg (Sep 8, 12:51 AM)
Low63 °F (Sep 21, 5:51 AM)31% (Sep 21, 3:51 PM)29.85 "Hg (Sep 17, 5:51 PM)
Average77 °F74%30.01 "Hg
* Reported Sep 7 11:51 PM — Sep 22 11:51 PM, Columbus, Weather by CustomWeather, © 2014

Note: Actual official high and low records may vary slightly from our data, if they occured in-between our weather recording intervals... More about our weather records

Advertising

Columbus weather history for previous 24 hours

 ConditionsComfort  
Time TempWeatherWind HumidityBarometerVisibility
11:51 PM
Sep 22
66 °FClear.5 mph61%30.07 "Hg10 mi
10:51 PM68 °FClear.7 mph59%30.06 "Hg10 mi
9:51 PM69 °FClear.3 mph79%30.06 "Hg10 mi
8:51 PM70 °FClear.No wind84%30.04 "Hg10 mi
7:51 PM73 °FSunny.No wind76%30.01 "Hg10 mi
6:51 PM75 °FSunny.No wind69%30.00 "Hg10 mi
5:51 PM75 °FSunny.3 mph69%29.99 "Hg10 mi
4:51 PM74 °FSunny.No wind74%30.00 "Hg10 mi
3:51 PM70 °FSunny.3 mph81%30.01 "Hg10 mi
2:51 PM67 °FSunny.No wind81%30.03 "Hg10 mi
1:51 PM65 °FLight rain. Partly sunny.No wind91%30.06 "Hg10 mi
12:59 PM64 °FLight rain. More clouds than sun.No wind94%30.08 "Hg7 mi
11:51 AM64 °FThundershowers. Fog.No wind94%30.06 "Hg4 mi
10:51 AM67 °FThunderstorms. Broken clouds.No wind81%30.05 "Hg10 mi
9:51 AM73 °FScattered clouds.10 mph64%30.02 "Hg10 mi
8:51 AM72 °FSunny.5 mph71%30.00 "Hg10 mi
7:51 AM71 °FClear.3 mph76%29.99 "Hg10 mi
6:51 AM69 °FClear.No wind84%29.99 "Hg10 mi
5:51 AM70 °FMostly cloudy.3 mph79%29.98 "Hg10 mi
4:51 AM70 °FPassing clouds.5 mph79%29.96 "Hg10 mi
3:51 AM70 °FPassing clouds.No wind79%29.96 "Hg10 mi
2:51 AM70 °FClear.3 mph79%29.97 "Hg10 mi
1:51 AM69 °FClear.No wind84%29.97 "Hg10 mi
Weather by CustomWeather, © 2014

See weather overviewHow to use our weather pages